Regional Weather Roundup
Issued by NWS Melbourne, FL

Home | Current Version | Previous Version | Text Only | Print | Product List | Glossary On
Versions: 1 2 3 4 5 6 7 8 9 10 11 12 13 14 15 16 17 18 19 20 21 22 23 24 25 26 27 28 29 30 31 32 33 34 35 36 37 38 39 40 41 42 43 44 45 46 47 48 49 50
000
ASUS42 KMLB 232211
RWRMLB
HOURLY WEATHER ROUNDUP AROUND FLORIDA
NATIONAL WEATHER SERVICE OFFICE MELBOURNE FL
600 PM EDT THU MAY 23 2019

CITY           SKY/WX    TMP DP  RH WIND       PRES   REMARKS
MELBOURNE      FAIR      83  66  56 NE18      30.14S
FORT PIERCE    PTSUNNY   81  66  60 E15G22    30.12F
ORLANDO INTL   FAIR      84  63  49 E17G24    30.14F
DAYTONA BEACH  FAIR      82  68  62 E17       30.17F
VERO BEACH     CLOUDY    82  68  62 NE17      30.13F
$$
...ELSEWHERE ACROSS CENTRAL FLORIDA...

CITY           SKY/WX    TMP DP  RH WIND       PRES   REMARKS
PATRICK AFB    FAIR      82  69  64 E18       30.14F
CAPE CANAVERAL FAIR      81  58  44 E14       30.14F
TITUSVILLE     MOSUNNY   84  64  51 E17       30.16F
ORLANDO EXEC   FAIR      83  64  52 NE16      30.15S
LEESBURG       FAIR      85  63  47 E15       30.16R
SANFORD        FAIR      84  64  50 E15       30.16S
DELAND         FAIR      81  66  61 NE15      30.17S
NEW SMYRNA BCH MOSUNNY   82  66  57 E14       30.19S
ORMOND BEACH   MOSUNNY   81  66  61 E12G18    30.18
WINTER HAVEN   FAIR      87  64  46 NE17G26   30.13S
KISSIMMEE      FAIR      84  64  50 E17       30.15S
OKEECHOBEE     FAIR      82  61  47 E12G17    30.11S
TAMPA          PTSUNNY   91  66  43 NE21      30.09S
$$
...NORTHERN FLORIDA...

CITY           SKY/WX    TMP DP  RH WIND       PRES   REMARKS
PALM COAST     MOSUNNY   81  66  61 NE12      30.18F
ST AUGUSTINE   FAIR      81  68  64 E14       30.20F
OCALA          FAIR      87  65  47 E14G22    30.15R
GAINESVILLE    FAIR      89  64  43 E15       30.18R
JACKSONVILLE   FAIR      83  62  49 E17       30.18F
TALLAHASSEE    FAIR      93  65  39 E14       30.11F
$$
...ALONG THE SOUTHEAST COAST TO THE KEYS...

CITY           SKY/WX    TMP DP  RH WIND       PRES   REMARKS
STUART         PTSUNNY   82  66  57 E17G25    30.13F
WEST PALM BCH  FAIR      84  66  54 E16G25    30.10F
MIAMI          PTSUNNY   84  69  60 NE16G25   30.07S
KEY WEST       FAIR      84  72  67 E18G25    30.04S
$$
...MARINE REPORTS...

STATION/POSITION TIME  TEMP    WIND        PRES    WAVE   SWELL
                       AIR SEA DIR/SP/G            HT/PER HT/PER
                 (UTC) (F)     (DEG/KT/KT) (MB)    (FT/S) (FT/S)
ST AUGUSTINE FP  2200   79 82   80/ 12/ 13 1022.4F
20NM E CAPE CANA 2150   79      70/ 16/ 19 1021.5F   4/ 5   2/11
TRIDENT PIER     2148   79 82   60/ 11/ 17 1022.5F
SEBASTIAN INLET  2145   78 79   60/ 17     1021.0F
4NM E PORT CANAV 2200      80                N/A     3/ 6
6NM NE FPR INLET 2130      79                N/A     4/ 5
SETTLEMENT PT GB 2200   78      60/ 20/ 22 1019.5F
$$



USA.gov is the U.S. government's official web portal to all federal, state and local government web resources and services.